Location: Unspecified
(0.0000°N, 0.0000°E)
Time: 15:18:50
(UTC+02:00)

Iridium 75 - Visible Passes

Search period start: 29 March 2017 00:00
Search period end: 08 April 2017 00:00
Orbit: 776 x 779 km, 86.4° (Epoch: 27 March)

Date Brightness Start Highest point End Pass type
(mag) Time Alt. Az. Time Alt. Az. Time Alt. Az.
29 Mar 7.3 06:09:15 10° SSE 06:14:05 39° E 06:18:54 10° NNE visible
30 Mar 8.6 05:37:13 10° SE 05:40:38 18° E 05:44:02 10° NE visible
30 Mar 6.9 07:16:48 10° SW 07:21:03 26° W 07:25:19 10° NW visible
31 Mar 6.0 06:42:30 10° SSW 06:47:37 57° W 06:52:42 10° NNW visible
01 Apr 6.4 06:09:00 10° S 06:14:10 64° E 06:19:18 10° N visible
02 Apr 7.8 05:36:32 11° SSE 05:40:43 28° E 05:45:07 10° NNE visible
02 Apr 7.4 07:18:04 10° SW 07:21:08 16° W 07:24:11 10° NW visible
03 Apr 8.9 05:07:03 13° E 05:07:15 13° E 05:09:26 10° ENE visible
03 Apr 6.5 06:47:40 35° W 06:47:41 35° W 06:52:23 10° NNW visible
04 Apr 6.6 06:15:59 43° NNW 06:15:59 43° NNW 06:19:26 10° N visible
05 Apr 7.9 05:43:49 22° NNE 05:43:49 22° NNE 05:45:44 10° NNE visible
